Regional Weather Roundup
Issued by NWS Sioux Falls, SD

Home | Current Version | Previous Version | Text Only | Print | Product List | Glossary On
Versions: 1 2 3 4 5 6 7 8 9 10 11 12 13 14 15 16 17 18 19 20 21 22 23 24 25 26 27 28 29 30 31 32 33 34 35 36 37 38 39 40 41 42 43 44 45 46 47 48 49 50
000
ASUS43 KFSD 230910
RWRFSD

WEATHER ROUNDUP FOR SE SOUTH DAKOTA/SW MINNESOTA/NW IOWA
NATIONAL WEATHER SERVICE SIOUX FALLS SD
400 AM CDT FRI JUN 23 2017

NOTE: "FAIR" INDICATES FEW OR NO CLOUDS BELOW 12,000 FEET WITH NO
SIGNIFICANT WEATHER AND OR OBSTRUCTIONS TO VISIBILITY.


SDZ038>040-050-052>070-231000-
SOUTHEAST SOUTH DAKOTA

CITY           SKY/WX    TMP DP  RH WIND       PRES   REMARKS
BROOKINGS      CLEAR     56  46  69 NW10      29.86R
CHAMBERLAIN    CLOUDY    61  43  51 NW15      29.97F
HURON          CLEAR     55  46  71 NW9       29.91R
MADISON        FAIR      57  45  62 NW15G21   29.87S
MITCHELL       CLEAR     60  43  53 NW16      29.92R
SIOUX FALLS    CLEAR     58  49  72 W9        29.85R
WINNER         FAIR      60  39  45 NW17      30.02R
YANKTON        PTCLDY    61  49  64 NW10      29.87S
$$

MNZ071-072-080-081-089-090-097-098-231000-
SOUTHWEST MINNESOTA

CITY           SKY/WX    TMP DP  RH WIND       PRES   REMARKS
FAIRMONT       CLEAR     56  52  86 W5        29.78F
JACKSON        CLEAR     55  50  82 CALM      29.80F
LUVERNE        CLEAR     54  46  76 NW6       29.83F
MARSHALL       CLEAR     61  52  72 NW13      29.80S
MONTEVIDEO     CLEAR     59  54  82 N12G17    29.79S
PIPESTONE      CLEAR     57  48  72 NW8       29.83S
REDWOOD FALLS  CLEAR     60  53  77 NW8       29.76F
TRACY          CLEAR     62  54  73 W6        29.80F
WINDOM         CLEAR     54  50  87 W5        29.79F
WORTHINGTON    CLEAR     56  50  80 W6        29.81F
$$

IAZ001>003-012>014-020>022-031-032-NEZ013-014-SDZ071-231000-
NORTHWEST IOWA

CITY           SKY/WX    TMP DP  RH WIND       PRES   REMARKS
CHEROKEE       CLEAR     53  53 100 CALM      29.81F
DENISON        CLEAR     61  54  77 CALM      29.81F
ESTHERVILLE    CLEAR     54  52  93 W5        29.79F
LE MARS        CLEAR     54  52  94 W5        29.85R
ORANGE CITY    CLEAR     55  52  88 W6        29.83F
SHELDON        CLEAR     52  50  93 CALM      29.80F
SIOUX CITY       N/A    N/A N/A N/A MISG      29.84S
SPENCER        CLEAR     52  50  93 NW7       29.80F
STORM LAKE     CLEAR     57  50  77 NW9       29.81F
$$

ABBREVIATIONS USED IN REMARKS
   TC - TEMPERATURE IN CELSIUS
  WCI - WIND CHILL INDEX
   HX - HEAT INDEX
  VSB - VISIBILITY




USA.gov is the U.S. government's official web portal to all federal, state and local government web resources and services.